Regional Weather Roundup
Issued by NWS State College, PA

Home | Current Version | Previous Version | Graphics & Text | Print | Product List | Glossary Off
Versions: 1 2 3 4 5 6 7 8 9 10 11 12 13 14 15 16 17 18 19 20 21 22 23 24 25 26 27 28 29 30 31 32 33 34 35 36 37 38 39 40 41 42 43 44 45 46 47 48 49 50

762
ASUS41 KCTP 100103
RWRCTP

REGIONAL WEATHER ROUNDUP
NATIONAL WEATHER SERVICE STATE COLLEGE PA
800 PM EST TUE FEB 09 2016

Note: "fair" indicates few or no clouds below 12,000 feet with no
significant weather and/or obstructions to visibility.

* = STATION THAT DOES NOT REPORT PRECIPITATION /E.G. RAIN...SNOW...ETC/
    THUNDER OR FOG.

PAZ002>004-007>009-013>016-020>023-029>032-100200-
WESTERN PENNSYLVANIA

CITY           SKY/WX    TMP DP  RH WIND       PRES   REMARKS
ERIE           LGT SNOW  30  25  81 W14G23    29.61S
MEADVILLE      LGT SNOW  28  24  85 SW8       29.59R FOG
FRANKLIN*      CLOUDY    27  21  80 SW8G17    29.62R
NEW CASTLE     FLURRIES  27  24  89 SW12      29.66S
BEAVER COUNTY  FLURRIES  27  23  86 SW13      29.66S
BUTLER*        CLOUDY    27  21  80 SW9G17    29.69S
PITTSBURGH INT FLURRIES  25  21  85 SW13      29.67R WCI  14
PITTSBURGH     FLURRIES  27  21  78 W16       29.67S WCI  15
INDIANA*       CLOUDY    27  25  93 W14G21    29.67R
LATROBE        LGT SNOW  25  25 100 SW12G21   29.69R WCI  14
WASHINGTON CO* CLOUDY    25  19  80 SW10      29.70S WCI  15
$$

PAZ004>006-010>012-017>019-024>028-033>037-041-042-045-046-049>053-100200-
CENTRAL PENNSYLVANIA

CITY           SKY/WX    TMP DP  RH WIND       PRES   REMARKS
BRADFORD       LGT SNOW  28  21  75 W6        29.52S
DUBOIS         CLOUDY    27  23  85 W13G22    29.56R
CLEARFIELD     CLOUDY    29  24  82 SW9       29.58S
JOHNSTOWN      LGT SNOW  21  16  81 W12       29.58R WCI   9
ALTOONA        CLOUDY    27  19  72 W10       29.61R
STATE COLLEGE  CLOUDY   N/A N/A N/A W16G25    29.58R
WILLIAMSPORT   LGT SNOW  34  30  85 E3        29.57S VSB 1
SELINSGROVE    LGT SNOW  32  30  92 S5        29.60R FOG
FT INDIANTOWN  LGT SNOW  30  30 100 CALM      29.60S VSB 1
CAPITAL CITY   LGT SNOW  32  29  88 W5        29.62S FOG
HARRISBURG     LGT SNOW  32  30  92 NW3       29.61S VSB 3/4
YORK           LGT SNOW  31  29  92 W7        29.62R FOG
$$

PAZ038>040-043-044-047-048-054-055-060>062-067>071-100200-
EASTERN PENNSYLVANIA

CITY           SKY/WX    TMP DP  RH WIND       PRES   REMARKS
SCRANTON       LGT SNOW  31  30  96 W6        29.55R FOG
MOUNT POCONO   LGT SNOW  27  24  89 SW3       29.50S FOG
ALLENTOWN      LGT SNOW  32  28  85 CALM      29.60S VSB 3/4
QUAKERTOWN*    CLOUDY    30  30 100 CALM      29.61R
READING        LGT SNOW  31  29  92 S3        29.60S FOG
LANCASTER      LGT SNOW  30  30 100 CALM      29.61S FOG
COATESVILLE    LGT SNOW  30  30 100 CALM      29.61R
POTTSTOWN      LGT SNOW  30  29  96 CALM      29.62S FOG
BLUE BELL        N/A     32  32 100 CALM      29.60S
DOYLESTOWN     LGT SNOW  30  29  96 CALM      29.60S FOG
WILLOW GROVE   NOT AVBL
NORTH PHILA    LGT SNOW  34  31  88 E3        29.63S FOG
PHILADELPHIA   CLOUDY    34  31  88 E5        29.63R FOG
$$




USA.gov is the U.S. government's official web portal to all federal, state and local government web resources and services.